Location: Bergnershof
(48.9468°N, 10.9431°E)
Time: 11:40:40
(UTC+00:00)

USA 186 - Pass Details

Date: 03 March 2021
Orbit: 261 x 430 km, 96.9° (Epoch: 11 April)

Event Time Altitude Azimuth Distance (km) Brightness Sun altitude
Exits shadow 18:28:29 30° 36° (NE) 559 2.1 -14.8°
Drops below altitude 10° 18:30:12 10° 3° (N) 1,179 4.1 -15.1°
Sets 18:32:11 0° 355° (N) 2,043 5.4 -15.4°
